EW8026 Guilford CT US current weather conditions

sailwx.info

Wind from 016

Air temperature 2.2° C
Dewpoint -1.6° C

Last reported at 2020-Oct-31 15:00 UTC.
Time now 2020-Oct-31 16:08 UTC

Location: N 41°17' W 072°44'.
View on Google Maps.

See reports from other nearby stations

  
Tides and Currents Weather Stations Pressure Air Temp Water Temp Dewpoint Dewpoint Depression Visibility Wind Speed Wind Dir Waves Ship Positions
date/time (UTC)wind fromknots sea level pressurealtimeterstation pressurevisibilityair tempwater tempwave heightnotes
2020-Oct-31 15:00 016 2.2
2020-Oct-31 14:45 013 1.7
2020-Oct-31 14:30 355 1.1
2020-Oct-31 14:15 281 1.1
2020-Oct-31 14:01 327 0.6
2020-Oct-31 13:45 353 -0.0
2020-Oct-31 13:30 007 -0.6
2020-Oct-31 13:15 349 -1.1
2020-Oct-31 13:00 344 -2.2
2020-Oct-31 12:45 344 -2.8
2020-Oct-31 12:33 344 -2.8
2020-Oct-31 12:16 344 -3.3
2020-Oct-31 12:02 344 -3.3
2020-Oct-31 11:46 344 -3.3
2020-Oct-31 11:32 344 -3.3
2020-Oct-31 11:17 344 -3.3
2020-Oct-31 11:03 344 -3.3
2020-Oct-31 10:46 344 -3.3
2020-Oct-31 10:33 344 -3.3
2020-Oct-31 10:17 344 -3.3
2020-Oct-31 10:01 344 -3.3
2020-Oct-31 09:46 344 -3.3
2020-Oct-31 09:31 344 -2.8
2020-Oct-31 09:16 344 -2.8
2020-Oct-31 09:00 344 -2.2
2020-Oct-31 08:46 344 -2.2
2020-Oct-31 08:30 344 -2.2
2020-Oct-31 08:15 342 -2.8
2020-Oct-31 08:00 342 -2.8
2020-Oct-31 07:45 342 -2.2
2020-Oct-31 07:30 342 -2.2
2020-Oct-31 07:15 342 -2.2
2020-Oct-31 07:00 342 -2.2
2020-Oct-31 06:45 342 -2.2
2020-Oct-31 06:30 342 -2.2
2020-Oct-31 06:15 342 -2.2
2020-Oct-31 06:02 342 -1.7
2020-Oct-31 05:46 342 -2.2
2020-Oct-31 05:32 342 -2.2
2020-Oct-31 05:16 342 -2.2
2020-Oct-31 05:03 342 -2.2
2020-Oct-31 04:46 342 -2.2
2020-Oct-31 04:31 342 -1.7
2020-Oct-31 04:17 342 -1.7
2020-Oct-31 04:01 342 -1.7
2020-Oct-31 03:47 342 -1.1
2020-Oct-31 03:32 342 -1.1
2020-Oct-31 03:15 342 -1.1
2020-Oct-31 03:01 342 -1.1
2020-Oct-31 02:46 342 -1.1
2020-Oct-31 02:31 342 -1.1
2020-Oct-31 02:15 342 -1.1
2020-Oct-31 02:01 342 -1.7
2020-Oct-31 01:45 342 -1.7
2020-Oct-31 01:30 342 -1.7
2020-Oct-31 01:15 342 -1.7
2020-Oct-31 01:00 342 -1.7
2020-Oct-31 00:46 342 -1.1
2020-Oct-31 00:30 342 -1.1
2020-Oct-31 00:15 342 -1.1
2020-Oct-31 00:00 342 -0.6
2020-Oct-30 23:33 342 -0.6
2020-Oct-30 23:18 342 -0.0
2020-Oct-30 23:01 342 -0.0
2020-Oct-30 22:47 342 -0.0
2020-Oct-30 22:31 342 -0.0
2020-Oct-30 22:16 342 0.6
2020-Oct-30 22:01 342 0.6
2020-Oct-30 21:46 356 0.6
2020-Oct-30 21:31 312 0.6
2020-Oct-30 21:16 346 0.6
2020-Oct-30 21:01 010 1.1
2020-Oct-30 20:45 346 1.1
2020-Oct-30 20:31 336 0 gusting 4 1.1
2020-Oct-30 20:15 333 2 gusting 6 1.1
2020-Oct-30 20:01 344 0 gusting 2 1.1
2020-Oct-30 19:45 328 1.1
2020-Oct-30 19:30 007 1.1
2020-Oct-30 19:16 009 1.1
2020-Oct-30 19:00 342 1.1
2020-Oct-30 18:45 036 1 gusting 5 1.1
2020-Oct-30 18:30 023 0 gusting 3 0.6
2020-Oct-30 18:15 012 0.6
2020-Oct-30 18:00 001 0.6
2020-Oct-30 17:45 304 1 gusting 5 0.6
2020-Oct-30 17:30 018 0 gusting 6 0.6
2020-Oct-30 17:17 358 0 gusting 5 0.6
2020-Oct-30 17:03 331 0 gusting 5 0.6
2020-Oct-30 16:48 354 1 gusting 5 0.6
2020-Oct-30 16:31 320 0 gusting 6 0.6
2020-Oct-30 16:17 333 0.6
2020-Oct-30 16:02 337 0 gusting 9 0.6
2020-Oct-30 15:46 352 0.6
2020-Oct-30 15:31 344 0.6
2020-Oct-30 15:16 006 0 gusting 6 0.6
2020-Oct-30 15:01 332 1 gusting 8 0.6
2020-Oct-30 14:46 315 0 gusting 6 0.6
2020-Oct-30 14:31 044 0 gusting 5 -0.0
2020-Oct-30 14:16 021 0 gusting 4 -0.0
2020-Oct-30 14:01 012 -0.0
2020-Oct-30 13:46 342 -0.0
2020-Oct-30 13:30 347 0 gusting 4 0.6
2020-Oct-30 13:15 347 0.6
2020-Oct-30 13:01 022 0.6
2020-Oct-30 12:46 344 0 gusting 4 0.6
2020-Oct-30 12:30 031 2 gusting 6 1.1
2020-Oct-30 12:15 024 0 gusting 6 1.1
2020-Oct-30 12:00 344 2 gusting 6 1.7
2020-Oct-30 11:45 336 0 gusting 6 2.2
2020-Oct-30 11:17 341 0 gusting 6 2.8
2020-Oct-30 11:01 012 2.8
2020-Oct-30 10:47 024 3.3
2020-Oct-30 10:31 028 3.3
2020-Oct-30 10:17 346 0 gusting 3 3.9
2020-Oct-30 10:02 027 0 gusting 5 3.9
2020-Oct-30 09:46 358 3.9
2020-Oct-30 09:31 022 0 gusting 4 4.4
2020-Oct-30 09:16 029 4.4
2020-Oct-30 09:02 050 0 gusting 6 4.4
2020-Oct-30 08:46 039 5.0
2020-Oct-30 08:30 004 5.0
2020-Oct-30 08:15 038 5.0
2020-Oct-30 08:01 344 5.0
2020-Oct-30 07:46 022 5.6
2020-Oct-30 07:30 011 5.6
2020-Oct-30 07:15 027 5.6
2020-Oct-30 07:00 353 5.6
2020-Oct-30 06:46 031 5.6
2020-Oct-30 06:30 351 5.6
2020-Oct-30 06:15 044 5.6
2020-Oct-30 06:00 357 5.6
2020-Oct-30 05:45 032 5.6
2020-Oct-30 05:30 332 6.1
2020-Oct-30 05:16 008 6.1
2020-Oct-30 05:00 330 0 gusting 3 5.6
2020-Oct-30 04:45 016 0 gusting 2 5.6
2020-Oct-30 04:30 354 6.1
2020-Oct-30 04:15 351 6.1
2020-Oct-30 04:00 001 6.1
2020-Oct-30 03:46 015 6.1
2020-Oct-30 03:31 015 1 gusting 5 6.1
2020-Oct-30 03:17 334 6.1
2020-Oct-30 03:01 017 6.1
2020-Oct-30 02:46 008 6.7
2020-Oct-30 02:31 003 6.7
2020-Oct-30 02:16 008 6.7
2020-Oct-30 02:01 018 6.7
2020-Oct-30 01:47 029 6.7
2020-Oct-30 01:32 044 6.7
2020-Oct-30 01:16 011 6.7
2020-Oct-30 01:01 358 6.7
2020-Oct-30 00:48 055 6.7
2020-Oct-30 00:32 325 6.7
2020-Oct-30 00:16 008 0 gusting 4 6.7
2020-Oct-30 00:01 022 6.7
2020-Oct-29 23:45 010 0 gusting 4 6.7
2020-Oct-29 23:30 066 0 gusting 4 6.7
2020-Oct-29 23:15 311 0 gusting 6 6.7
2020-Oct-29 23:00 020 6.7
2020-Oct-29 22:45 346 6.7
2020-Oct-29 22:31 005 0 gusting 2 6.7
2020-Oct-29 22:16 036 6.7
2020-Oct-29 22:00 058 7.2
2020-Oct-29 21:45 004 7.2
2020-Oct-29 21:30 020 7.2
2020-Oct-29 21:15 349 7.2
2020-Oct-29 21:02 353 7.2
2020-Oct-29 20:45 034 7.2
2020-Oct-29 20:17 027 7.2
2020-Oct-29 20:02 005 7.2
2020-Oct-29 19:46 038 7.8
2020-Oct-29 19:31 351 7.8
2020-Oct-29 19:16 352 7.8
2020-Oct-29 19:02 352 7.8
2020-Oct-29 18:46 346 7.8
2020-Oct-29 18:31 008 7.8
2020-Oct-29 18:16 339 8.3
2020-Oct-29 18:01 353 8.3
2020-Oct-29 17:46 344 8.3
2020-Oct-29 17:31 289 8.3
2020-Oct-29 17:15 278 8.3
2020-Oct-29 17:02 278 8.3
2020-Oct-29 16:45 278 7.8
2020-Oct-29 16:31 233 7.8
2020-Oct-29 16:16 233 7.8
2020-Oct-29 16:01 311 7.8